Regional Weather Roundup
Issued by NWS Raleigh/Durham, NC

Home | Current Version | Previous Version | Text Only | Print | Product List | Glossary On
Versions: 1 2 3 4 5 6 7 8 9 10 11 12 13 14 15 16 17 18 19 20 21 22 23 24 25 26 27 28
000
ASUS42 KRAH 040010
RWRRAH
NORTH CAROLINA WEATHER ROUNDUP
NATIONAL WEATHER SERVICE RALEIGH NC
800 PM EDT TUE MAY 03 2016

NOTE: "FAIR" INDICATES FEW OR NO CLOUDS BELOW 12,000 FEET WITH NO
SIGNIFICANT WEATHER AND/OR OBSTRUCTIONS TO VISIBILITY.

NCZ001-053-055-056-065-067-040100-
WESTERN NORTH CAROLINA

CITY           SKY/WX    TMP DP  RH WIND       PRES   REMARKS
ASHEVILLE      CLEAR     64  50  60 N10       29.83R
JEFFERSON      PTCLDY    59  45  60 W8        29.85S
MORGANTON      PTCLDY    72  46  39 W8        29.81R
HICKORY        PTCLDY    69  58  67 NW7       29.75S
RUTHERFORDTON  MOCLDY    73  53  48 NW5       29.77R
MOUNT AIRY     MOCLDY    73  52  48 NW5       29.78R
BOONE          CLEAR     58  46  63 NW9G16    29.86S
$$

NCZ021-022-025-041-071-084-088-040100-
CENTRAL NORTH CAROLINA

CITY           SKY/WX    TMP DP  RH WIND       PRES   REMARKS
CHARLOTTE      PTCLDY    71  64  78 S6        29.74R
GREENSBORO     CLOUDY    68  59  73 CALM      29.75R
WINSTON-SALEM  MOCLDY    70  59  68 CALM      29.75S
RALEIGH-DURHAM CLOUDY    66  64  93 CALM      29.73S
FORT BRAGG     CLOUDY    73  65  77 S7        29.72R
FAYETTEVILLE   TSTM      70  66  87 S16G25    29.73S FOG
BURLINGTON     MOCLDY    69  64  84 NW3       29.75R
LAURINBURG     CLEAR     72  67  84 E5        29.73R
$$

NCZ011-015-027-028-043-044-047-080-103-040100-
NORTHEASTERN NORTH CAROLINA

CITY           SKY/WX    TMP DP  RH WIND       PRES   REMARKS
ROCKY MT-WILSO CLOUDY    65  62  90 S6        29.74R
GREENVILLE     CLOUDY    73  68  83 S6        29.76S
WASHINGTON     CLOUDY    72  67  83 S7        29.74S
ELIZABETH CITY CLEAR     70  64  81 S8        29.74F
MANTEO         NOT AVBL
CAPE HATTERAS  CLEAR     69  66  90 SW10      29.77F
$$

NCZ078-087-090-091-093-098-101-040100-
SOUTHEASTERN NORTH CAROLINA

CITY           SKY/WX    TMP DP  RH WIND       PRES   REMARKS
LUMBERTON      PTCLDY    71  65  81 SE6       29.73S
GOLDSBORO      CLOUDY    73  73 100 N12       29.71S
KINSTON        CLOUDY    73  68  83 S13       29.74S
KENANSVILLE    LGT RAIN  73  68  86 CALM      29.74F
NEW BERN       CLOUDY    69  65  86 S6        29.77S
CHERRY POINT   CLOUDY    70  66  87 S6        29.77F
BEAUFORT       CLOUDY    70  68  93 S7        29.77S
JACKSONVILLE   CLOUDY    70  66  87 S6        29.76S
WILMINGTON     CLOUDY    70  67  90 S13       29.76F
$$





USA.gov is the U.S. government's official web portal to all federal, state and local government web resources and services.